Wind_Speed
31 30 29 28 28 26 25 23 20 19 18 16 15 15 15 14 13 12 12 12 11 11 11 12 12 13 13 14 15 15 16 16 16 17 17 16 16 16 15 15 14 14 13 13
32 31 30 29 28 27 26 24 22 20 19 18 17 16 16 15 15 14 14 13 13 13 13 13 14 15 15 16 16 17 18 18 18 18 18 18 17 17 15 16 16 15 15 15
30 30 30 31 29 27 26 25 23 21 21 20 18 17 17 16 16 16 16 16 15 14 15 15 16 17 17 18 18 19 20 20 19 19 19 18 17 18 18 18 17 17 17 16
29 30 31 29 29 28 27 26 25 24 23 21 20 19 18 17 17 18 17 17 17 16 16 17 18 18 19 20 20 21 21 21 20 20 19 18 18 18 19 19 18 17 17 17
30 30 30 31 29 27 27 27 27 26 25 23 22 20 20 19 18 18 18 18 19 18 18 18 19 20 21 22 22 22 21 21 21 21 20 19 19 19 20 20 19 19 18 18
32 30 29 30 28 27 28 29 28 27 26 25 24 23 22 21 20 20 19 19 20 20 20 20 20 21 23 23 23 23 23 22 22 21 20 20 20 20 21 22 21 20 20 19
33 32 30 31 29 27 28 28 28 28 27 26 25 25 24 23 22 22 22 22 23 23 23 22 23 23 24 24 23 23 23 23 23 22 21 21 21 22 22 22 21 21 21 20
34 33 33 33 30 30 29 28 28 28 28 27 27 26 26 25 25 24 24 24 25 24 24 24 24 25 25 25 25 24 24 24 24 24 23 23 23 23 23 23 22 22 22 22
36 35 35 34 31 30 30 30 30 30 30 29 29 28 27 27 27 26 26 26 26 26 25 25 26 27 26 26 26 26 26 26 26 25 25 25 24 24 23 23 23 24 24 24
37 36 35 34 33 32 32 32 32 32 31 31 31 30 29 29 28 28 28 28 28 28 27 27 27 28 28 28 27 28 28 27 26 26 26 26 25 25 24 24 25 25 24 25
38 37 35 35 34 34 34 33 33 32 32 32 32 32 31 30 30 30 30 29 29 29 29 29 29 29 30 30 29 28 27 27 27 27 27 27 27 26 26 25 26 26 26 26
39 38 37 36 35 35 35 34 33 33 33 32 32 32 32 32 32 32 32 32 31 31 31 31 32 32 32 31 30 29 29 28 28 28 28 28 27 27 27 26 26 26 26 26
40 38 38 36 36 36 35 35 34 34 33 32 32 33 33 33 33 33 33 33 33 33 33 33 33 32 32 31 31 31 30 29 29 29 29 28 28 28 28 27 27 27 27 27
39 39 38 37 37 36 36 35 35 34 34 33 33 33 33 33 33 34 34 33 34 34 34 34 33 33 32 32 32 32 31 30 29 30 29 29 28 28 28 28 27 28 27 28
38 38 38 37 37 36 36 36 35 35 34 34 33 33 33 33 34 34 34 34 34 34 34 34 33 32 33 33 33 32 31 30 30 30 30 29 29 29 29 28 28 28 28 29
38 37 37 37 36 36 35 35 34 34 34 34 33 33 33 34 34 34 34 33 33 33 34 34 34 34 34 34 33 32 31 31 31 30 30 30 30 29 29 29 29 29 29 29
37 37 36 35 35 35 35 34 33 33 32 32 32 32 32 33 34 33 33 33 33 33 33 33 33 33 33 33 32 31 31 31 31 31 30 31 31 30 30 30 30 30 29 29
35 35 35 34 34 33 33 33 33 33 32 31 31 31 32 32 32 33 32 33 33 32 32 31 31 31 31 30 30 31 31 31 31 31 31 31 32 31 31 31 31 30 30 30
34 33 33 33 33 32 32 32 32 33 32 32 32 32 31 31 32 32 32 33 33 32 32 31 30 30 30 30 30 30 31 31 31 31 32 32 32 31 31 31 31 31 31 30
32 32 32 32 32 32 32 32 31 30 30 30 31 32 31 31 31 31 32 32 32 32 32 31 30 29 29 30 30 30 31 31 31 32 32 32 32 32 31 31 31 31 31 30
30 30 30 30 30 30 30 31 31 31 30 30 31 31 32 32 31 31 31 32 32 32 32 31 30 30 31 31 31 31 31 31 31 32 31 31 31 31 30 30 30 30 29 29
30 29 29 29 29 28 28 29 29 30 30 31 31 31 30 31 31 31 31 31 32 32 31 31 31 31 32 31 31 31 31 31 31 31 30 30 30 29 29 29 28 28 28 29
28 27 27 27 27 27 27 28 28 29 29 30 30 30 30 30 30 31 30 30 31 30 30 30 30 30 30 30 30 30 30 30 30 30 29 29 29 29 29 28 28 28 28 28
25 26 26 27 27 27 28 28 28 28 28 29 29 29 29 29 29 29 29 29 29 29 29 29 29 29 29 29 29 28 29 29 29 29 29 29 29 29 28 28 28 28 28 28
22 23 24 25 25 26 27 27 28 27 27 27 27 27 27 27 27 27 27 27 27 28 28 28 28 28 28 28 28 28 28 28 28 28 28 27 28 28 27 27 27 27 27 28
21 21 21 22 23 24 25 25 25 25 25 26 26 26 25 25 25 25 26 26 26 26 26 27 27 27 27 27 28 28 28 27 27 26 26 26 26 26 27 27 27 27 27 27
19 19 20 21 21 22 22 23 23 24 24 24 24 24 24 24 24 24 24 24 24 24 25 25 26 26 27 27 26 26 25 25 25 25 25 25 25 25 26 26 26 26 26 26
Wind_Direction
221 227 230 232 233 235 236 236 239 243 244 247 251 253 257 262 268 271 277 288 298 306 315 324 328 327 327 328 329 329 329 328 327 329 327 325 321 322 319 320 320 320 318 316
225 228 231 232 234 235 236 236 237 239 243 246 250 252 253 257 262 265 270 278 287 296 303 311 317 319 321 322 324 326 326 326 323 324 325 324 323 323 319 316 315 313 312 313
226 228 230 232 234 235 237 238 238 240 243 246 249 252 254 254 256 261 265 271 278 287 294 302 309 314 317 317 318 321 322 323 322 320 319 321 323 322 322 321 315 312 311 310
225 227 230 232 233 234 235 236 237 240 243 246 248 251 253 255 256 259 262 266 274 283 291 297 303 308 311 314 314 316 318 319 318 317 316 314 316 319 320 321 317 312 310 308
225 229 233 234 234 234 236 237 238 240 244 246 249 250 253 256 258 259 260 264 271 278 285 292 298 304 307 310 312 312 314 315 316 314 312 311 312 314 315 316 315 312 309 307
226 226 231 236 235 235 237 238 238 240 243 246 249 251 253 255 257 258 259 265 270 275 281 289 295 300 304 306 308 308 310 312 312 313 312 310 309 311 313 313 312 312 311 310
227 228 231 235 234 234 236 238 237 239 242 245 248 251 253 253 254 256 259 264 269 275 279 284 290 296 301 304 304 304 306 310 309 309 309 310 309 309 310 309 308 309 308 308
227 229 233 235 234 235 237 238 238 239 241 245 248 251 253 254 255 257 259 263 268 273 278 282 287 292 296 299 302 302 303 305 306 307 307 307 306 306 307 306 307 306 306 307
228 230 233 235 235 236 236 237 238 240 242 244 247 250 252 253 255 257 259 263 269 272 276 280 284 289 293 295 297 298 300 301 303 303 303 304 303 305 306 305 306 308 306 305
231 231 233 235 235 235 236 238 240 241 243 245 248 249 251 254 256 258 260 264 269 271 275 278 283 287 290 292 295 297 298 299 300 301 301 300 301 302 303 304 305 305 304 305
231 232 233 234 235 236 238 240 242 244 245 247 249 250 251 254 257 259 261 266 269 271 274 279 282 285 288 290 292 293 294 295 296 298 299 299 299 300 301 301 304 303 303 303
231 232 234 236 237 239 240 242 245 247 247 248 250 251 252 253 256 258 261 264 267 271 274 278 281 284 286 288 289 291 292 293 294 296 296 295 297 297 298 300 301 302 302 303
232 233 235 236 238 240 242 244 247 249 250 251 252 254 255 255 255 258 261 264 267 270 274 277 280 282 284 284 287 288 288 289 291 293 293 293 294 295 296 297 299 300 300 301
232 234 235 237 239 241 243 246 248 250 251 252 253 255 257 256 257 259 262 265 268 270 273 276 279 279 280 282 283 285 285 286 288 290 291 291 292 294 295 296 298 299 299 299
233 234 236 238 240 242 245 247 249 250 251 253 253 253 254 256 258 260 262 265 267 269 272 274 276 277 279 281 281 281 281 283 286 287 289 290 291 292 294 295 296 297 297 298
233 234 236 238 240 242 245 247 249 251 252 253 254 253 255 256 258 262 262 263 265 268 271 272 274 277 278 279 278 277 278 281 284 285 287 288 290 292 293 294 294 295 295 297
232 234 236 238 240 242 243 246 248 250 252 253 252 253 255 256 258 262 263 263 266 268 270 273 276 277 277 277 276 277 278 280 282 284 285 287 288 290 291 291 292 293 294 295
232 234 236 238 240 242 243 245 247 250 250 250 252 255 255 256 259 261 261 262 264 268 272 273 276 277 277 276 276 278 279 280 282 283 284 286 287 288 289 289 290 291 292 293
233 235 236 238 240 242 244 246 247 248 249 251 254 255 257 258 260 260 261 262 264 268 271 272 274 275 275 276 276 277 278 280 281 282 283 286 288 288 288 288 288 289 290 291
233 236 238 239 240 241 242 243 245 248 250 253 255 256 257 258 260 261 262 264 265 267 270 272 274 275 275 275 276 278 280 281 282 283 284 286 286 286 287 287 288 288 288 289
233 234 237 239 241 242 242 244 246 247 250 253 256 258 258 259 261 263 265 265 266 267 268 269 271 272 274 275 276 278 281 282 282 283 284 285 285 286 286 286 287 287 288 289
232 235 237 240 242 243 244 246 247 248 249 253 255 257 258 259 260 262 264 265 266 266 267 267 268 271 273 274 276 278 280 281 283 283 284 285 285 285 285 286 286 287 289 289
233 235 237 239 241 243 245 247 249 250 251 252 254 255 256 258 260 262 263 264 264 264 265 266 267 269 272 275 277 279 280 281 282 283 283 284 285 285 285 285 286 288 290 291
231 233 235 238 240 243 246 247 249 251 252 253 254 255 256 259 260 260 261 262 262 262 264 266 267 269 271 274 277 279 281 282 282 282 283 283 284 285 285 285 287 288 289 290
231 232 234 236 239 241 243 246 248 249 250 251 252 254 255 257 258 259 260 260 260 262 264 265 266 267 270 273 276 279 281 282 282 283 283 284 285 286 287 288 288 289 290 289
230 232 235 237 238 240 242 245 246 246 247 248 250 252 254 254 254 255 256 258 260 262 264 265 266 269 273 277 278 279 280 280 280 282 282 284 284 285 287 288 288 288 289 289
228 231 235 237 237 238 241 244 245 245 246 248 250 250 251 252 253 254 256 259 260 262 265 266 268 271 274 277 279 280 281 282 282 281 282 284 285 287 288 289 289 289 289 291
Height
5896 5899 5903 5907 5910 5913 5917 5920 5924 5926 5927 5928 5929 5929 5930 5930 5929 5929 5929 5928 5927 5926 5925 5923 5922 5920 5918 5916 5914 5911 5909 5907 5904 5901 5899 5896 5893 5890 5888 5887 5885 5883 5880 5878
5889 5893 5897 5901 5904 5907 5911 5914 5917 5920 5922 5923 5924 5925 5926 5926 5926 5926 5926 5925 5925 5924 5923 5921 5920 5918 5916 5914 5911 5909 5907 5904 5901 5899 5896 5894 5891 5888 5885 5883 5882 5880 5878 5876
5884 5887 5891 5894 5898 5902 5905 5908 5912 5914 5917 5918 5919 5921 5922 5922 5922 5922 5922 5922 5922 5921 5920 5918 5917 5915 5913 5911 5909 5906 5904 5901 5898 5896 5894 5891 5889 5886 5883 5881 5878 5876 5874 5872
5878 5882 5885 5891 5892 5896 5899 5902 5905 5908 5910 5912 5914 5916 5917 5917 5918 5918 5918 5918 5917 5917 5916 5915 5913 5912 5910 5908 5905 5903 5900 5897 5894 5892 5890 5888 5885 5883 5880 5877 5875 5872 5870 5868
5872 5876 5879 5883 5886 5890 5893 5896 5899 5902 5905 5907 5909 5911 5911 5912 5913 5913 5913 5913 5913 5913 5912 5911 5909 5908 5906 5904 5901 5899 5896 5893 5891 5888 5886 5884 5881 5879 5876 5874 5871 5868 5866 5864
5865 5870 5874 5877 5880 5884 5888 5890 5893 5896 5898 5901 5903 5905 5906 5907 5908 5908 5908 5908 5908 5908 5907 5906 5905 5903 5901 5899 5897 5894 5892 5889 5887 5884 5882 5879 5877 5875 5872 5869 5867 5864 5862 5860
5858 5863 5867 5869 5873 5878 5882 5884 5887 5889 5892 5894 5896 5898 5900 5901 5902 5902 5903 5903 5903 5903 5902 5901 5900 5898 5896 5894 5892 5890 5888 5885 5882 5880 5877 5875 5873 5870 5868 5865 5862 5860 5857 5855
5851 5856 5861 5862 5867 5871 5874 5877 5879 5882 5885 5887 5889 5891 5893 5894 5895 5896 5897 5897 5897 5897 5896 5895 5894 5893 5891 5889 5887 5884 5882 5880 5878 5875 5873 5871 5868 5865 5863 5860 5857 5855 5852 5850
5844 5849 5851 5855 5859 5863 5866 5869 5872 5875 5877 5880 5882 5884 5885 5887 5888 5889 5890 5890 5890 5890 5890 5889 5887 5886 5885 5883 5881 5879 5877 5874 5872 5870 5867 5865 5863 5860 5857 5854 5852 5849 5846 5844
5835 5839 5843 5847 5851 5855 5858 5861 5864 5867 5870 5872 5874 5876 5878 5879 5880 5881 5882 5883 5883 5883 5883 5882 5881 5879 5878 5876 5874 5872 5870 5868 5866 5864 5861 5859 5857 5854 5852 5849 5846 5843 5840 5838
5826 5830 5835 5839 5843 5846 5850 5853 5856 5858 5861 5863 5866 5868 5869 5871 5872 5873 5874 5875 5875 5875 5875 5874 5873 5872 5871 5869 5867 5865 5863 5861 5859 5857 5855 5853 5850 5848 5846 5843 5840 5837 5834 5831
5817 5822 5826 5831 5835 5838 5841 5844 5847 5850 5852 5855 5857 5859 5861 5862 5864 5865 5866 5866 5867 5867 5867 5866 5865 5864 5863 5861 5860 5858 5856 5854 5852 5850 5848 5846 5844 5841 5839 5836 5834 5831 5828 5825
5808 5813 5818 5822 5826 5829 5833 5836 5839 5841 5844 5846 5848 5850 5851 5853 5854 5856 5857 5857 5858 5858 5858 5857 5857 5856 5854 5853 5852 5850 5848 5847 5845 5843 5841 5839 5836 5834 5832 5829 5827 5824 5821 5819
5800 5804 5809 5813 5817 5821 5824 5827 5830 5832 5835 5837 5839 5841 5842 5844 5845 5847 5847 5848 5848 5848 5849 5848 5848 5847 5845 5844 5843 5842 5840 5838 5837 5835 5833 5831 5829 5827 5824 5822 5819 5817 5814 5811
5791 5796 5800 5804 5808 5811 5815 5818 5821 5823 5825 5827 5829 5831 5833 5835 5836 5837 5838 5838 5839 5839 5839 5839 5838 5837 5836 5835 5834 5833 5832 5830 5828 5827 5825 5823 5821 5819 5816 5814 5812 5809 5806 5804
5782 5787 5791 5795 5799 5802 5806 5809 5811 5814 5816 5818 5820 5822 5824 5825 5826 5828 5828 5829 5829 5829 5829 5829 5828 5828 5826 5826 5824 5823 5822 5821 5820 5818 5816 5815 5813 5811 5808 5806 5804 5801 5799 5796
5774 5779 5783 5787 5790 5794 5797 5800 5802 5805 5807 5809 5811 5813 5815 5816 5817 5818 5819 5819 5820 5820 5820 5819 5818 5818 5817 5816 5815 5814 5813 5812 5811 5809 5808 5806 5804 5802 5800 5798 5795 5793 5791 5788
5766 5770 5774 5778 5782 5785 5788 5791 5794 5796 5798 5800 5802 5804 5805 5806 5807 5809 5809 5810 5810 5810 5810 5810 5809 5808 5807 5806 5806 5805 5804 5803 5802 5801 5799 5797 5795 5793 5791 5789 5787 5784 5782 5780
5758 5762 5766 5770 5773 5776 5779 5782 5784 5787 5789 5791 5793 5794 5796 5797 5798 5799 5800 5800 5801 5801 5801 5801 5800 5799 5798 5798 5797 5796 5795 5794 5793 5791 5790 5788 5786 5784 5782 5780 5778 5775 5773 5771
5750 5754 5758 5761 5765 5768 5770 5773 5776 5778 5780 5782 5783 5785 5787 5788 5789 5789 5790 5791 5791 5792 5792 5791 5791 5790 5790 5789 5788 5787 5786 5785 5784 5782 5781 5779 5777 5775 5773 5771 5768 5766 5764 5762
5742 5746 5749 5753 5756 5759 5762 5764 5767 5769 5771 5773 5775 5776 5777 5779 5780 5780 5781 5782 5782 5782 5782 5781 5781 5781 5781 5780 5779 5778 5777 5776 5774 5773 5771 5769 5768 5766 5764 5762 5760 5757 5755 5753
5735 5738 5742 5745 5748 5751 5754 5756 5758 5760 5762 5764 5765 5767 5768 5769 5770 5771 5771 5772 5772 5772 5772 5772 5772 5772 5772 5771 5770 5769 5768 5767 5765 5764 5762 5760 5759 5757 5755 5753 5751 5749 5746 5744
5727 5731 5734 5737 5740 5743 5745 5748 5750 5752 5753 5755 5756 5757 5759 5760 5761 5762 5762 5763 5762 5762 5763 5763 5763 5763 5762 5762 5761 5760 5759 5758 5756 5755 5753 5751 5750 5748 5746 5744 5742 5740 5738 5736
5720 5723 5726 5729 5732 5735 5737 5739 5741 5743 5745 5746 5748 5749 5750 5751 5751 5752 5752 5753 5753 5753 5753 5754 5754 5754 5753 5753 5752 5751 5750 5749 5747 5746 5744 5743 5741 5739 5737 5735 5734 5732 5730 5727
5713 5716 5719 5722 5725 5727 5729 5731 5733 5735 5737 5738 5739 5740 5741 5742 5743 5743 5744 5744 5744 5744 5745 5745 5745 5745 5745 5744 5743 5742 5741 5740 5739 5737 5735 5734 5732 5731 5729 5727 5725 5723 5721 5719
5708 5710 5712 5715 5717 5720 5722 5724 5725 5727 5729 5730 5731 5732 5733 5734 5734 5735 5735 5736 5736 5736 5737 5737 5737 5737 5736 5736 5735 5734 5733 5731 5730 5729 5727 5725 5724 5722 5720 5719 5717 5715 5713 5711
5702 5704 5706 5708 5710 5712 5715 5716 5718 5719 5721 5722 5723 5724 5725 5726 5727 5727 5728 5728 5729 5729 5729 5729 5729 5729 5728 5727 5727 5725 5724 5723 5722 5721 5719 5717 5716 5714 5712 5710 5709 5707 5705 5703